TimeEDT,TemperatureF,Dew PointF,Humidity,Sea Level PressureIn,VisibilityMPH,Wind Direction,Wind SpeedMPH,Gust SpeedMPH,PrecipitationIn,Events,Conditions,WindDirDegrees,DateUTC
12:22 AM,39.2,33.8,81,29.75,10.0,West,9.2,-,N/A,,Overcast,260,2013-03-12 04:22:00
12:53 AM,39.0,33.1,79,29.77,10.0,West,19.6,-,N/A,,Overcast,260,2013-03-12 04:53:00
1:32 AM,37.4,32.0,81,29.77,10.0,WSW,16.1,-,N/A,,Overcast,250,2013-03-12 05:32:00
1:53 AM,39.0,30.9,73,29.78,10.0,WSW,17.3,27.6,N/A,,Overcast,240,2013-03-12 05:53:00
2:17 AM,39.2,32.0,75,29.78,10.0,WSW,12.7,-,N/A,,Overcast,240,2013-03-12 06:17:00
2:53 AM,39.0,30.9,73,29.80,10.0,SW,18.4,-,N/A,,Overcast,230,2013-03-12 06:53:00
3:30 AM,37.4,32.0,81,29.79,10.0,WSW,16.1,-,N/A,,Overcast,240,2013-03-12 07:30:00
3:50 AM,37.4,30.2,75,29.80,10.0,WSW,12.7,-,N/A,,Overcast,240,2013-03-12 07:50:00
3:53 AM,37.9,32.0,79,29.81,10.0,WSW,13.8,-,N/A,,Overcast,250,2013-03-12 07:53:00
4:53 AM,37.0,30.9,79,29.81,10.0,WSW,18.4,26.5,N/A,,Overcast,240,2013-03-12 08:53:00
5:10 AM,37.4,30.2,75,29.81,10.0,WSW,15.0,23.0,N/A,,Overcast,240,2013-03-12 09:10:00
5:38 AM,37.4,30.2,75,29.81,10.0,SW,15.0,-,N/A,,Overcast,230,2013-03-12 09:38:00
5:45 AM,37.4,30.2,75,29.81,10.0,SW,17.3,24.2,N/A,,Overcast,220,2013-03-12 09:45:00
5:53 AM,37.0,30.0,76,29.82,10.0,SW,16.1,26.5,N/A,,Overcast,230,2013-03-12 09:53:00
6:32 AM,37.4,30.2,75,29.82,10.0,SW,12.7,-,N/A,,Overcast,220,2013-03-12 10:32:00
6:53 AM,37.0,30.0,76,29.84,10.0,WSW,15.0,24.2,N/A,,Overcast,240,2013-03-12 10:53:00
7:18 AM,37.4,30.2,75,29.84,10.0,SW,15.0,-,N/A,,Overcast,230,2013-03-12 11:18:00
7:44 AM,35.6,30.2,81,29.84,10.0,SW,13.8,23.0,N/A,,Overcast,230,2013-03-12 11:44:00
7:53 AM,36.0,30.9,82,29.86,10.0,SW,11.5,-,N/A,,Overcast,230,2013-03-12 11:53:00
8:41 AM,35.6,30.2,81,29.86,10.0,SW,15.0,-,N/A,,Overcast,220,2013-03-12 12:41:00
8:53 AM,36.0,30.9,82,29.88,10.0,WSW,16.1,-,N/A,,Overcast,250,2013-03-12 12:53:00
9:02 AM,33.8,30.2,87,29.87,5.0,WSW,17.3,-,0.00,Snow,Light Snow,240,2013-03-12 13:02:00
9:53 AM,35.1,30.9,85,29.88,10.0,WSW,11.5,-,0.00,,Overcast,240,2013-03-12 13:53:00
10:53 AM,36.0,28.9,76,29.90,10.0,WSW,17.3,-,N/A,,Overcast,240,2013-03-12 14:53:00
11:53 AM,37.0,30.0,76,29.90,10.0,WSW,15.0,-,N/A,,Overcast,250,2013-03-12 15:53:00
12:53 PM,36.0,28.9,76,29.91,10.0,WSW,11.5,-,N/A,,Overcast,250,2013-03-12 16:53:00
1:53 PM,37.0,30.9,79,29.91,10.0,WSW,13.8,-,N/A,,Overcast,240,2013-03-12 17:53:00
2:53 PM,36.0,28.9,76,29.91,10.0,SW,15.0,-,N/A,,Overcast,230,2013-03-12 18:53:00
3:45 PM,37.4,28.4,70,29.89,10.0,WSW,17.3,-,N/A,,Overcast,250,2013-03-12 19:45:00
3:53 PM,37.0,28.9,73,29.91,10.0,West,13.8,-,N/A,,Overcast,270,2013-03-12 19:53:00
4:04 PM,35.6,30.2,81,29.89,9.0,West,17.3,-,N/A,,Overcast,270,2013-03-12 20:04:00
4:17 PM,35.6,30.2,81,29.89,10.0,WSW,16.1,-,N/A,,Overcast,250,2013-03-12 20:17:00
4:46 PM,35.6,30.2,81,29.89,10.0,West,11.5,-,N/A,,Overcast,270,2013-03-12 20:46:00
4:53 PM,35.1,30.0,82,29.91,10.0,West,10.4,19.6,N/A,,Overcast,260,2013-03-12 20:53:00
5:09 PM,35.6,28.4,75,29.89,10.0,WSW,17.3,-,N/A,,Overcast,250,2013-03-12 21:09:00
5:53 PM,36.0,27.0,70,29.92,10.0,WSW,16.1,23.0,N/A,,Overcast,250,2013-03-12 21:53:00
6:43 PM,35.6,28.4,75,29.91,10.0,WSW,16.1,-,N/A,,Overcast,250,2013-03-12 22:43:00
6:53 PM,35.1,28.0,76,29.94,10.0,West,12.7,-,N/A,,Overcast,260,2013-03-12 22:53:00
7:53 PM,35.1,27.0,72,29.96,10.0,West,19.6,-,N/A,,Overcast,260,2013-03-12 23:53:00
8:24 PM,33.8,26.6,75,29.95,10.0,WSW,18.4,25.3,N/A,,Overcast,250,2013-03-13 00:24:00
8:53 PM,34.0,26.1,73,29.98,10.0,WSW,15.0,-,N/A,,Overcast,250,2013-03-13 00:53:00
9:53 PM,34.0,25.0,70,29.97,10.0,SW,8.1,-,N/A,,Overcast,230,2013-03-13 01:53:00
10:53 PM,35.1,26.1,70,29.97,10.0,SSW,11.5,-,N/A,,Overcast,200,2013-03-13 02:53:00
11:53 PM,33.1,26.1,75,29.96,10.0,South,8.1,-,N/A,,Clear,190,2013-03-13 03:53:00